Regional Weather Roundup
Issued by NWS

Home | Current Version | Previous Version | Text Only | Print | Product List | Glossary Off
Versions: 1 2 3 4 5 6 7 8 9 10 11 12 13 14 15 16 17 18 19 20 21 22 23 24 25 26 27 28 29 30 31 32 33 34 35 36 37 38 39 40 41 42 43 44 45 46 47 48 49 50

000
ASUS43 KDTX 051610
RWRMI
MICHIGAN HOURLY REGIONAL WEATHER ROUNDUP
NATIONAL WEATHER SERVICE DETROIT/PONTIAC MI
1100 AM EST MON DEC 05 2016

NOTE: "FAIR" INDICATES FEW OR NO CLOUDS BELOW 12,000 FEET WITH NO
SIGNIFICANT WEATHER AND/OR OBSTRUCTION TO VISIBILITY.

MIZ047>049-052>055-059>063-066>070-074>076-081>083-051700-
SOUTHEAST LOWER MICHIGAN

CITY           SKY/WX    TMP DP  RH WIND       PRES   REMARKS
ADRIAN         CLOUDY    36  32  85 SW10      30.07R WCI  28
ALMA           CLOUDY    36  33  86 SW7       29.98S WCI  31
ANN ARBOR      CLOUDY    37  32  82 SW7       30.04R WCI  32
BAD AXE        CLOUDY    34  32  91 W8        29.96F WCI  28
CARO           FAIR      36  33  90 SW8       29.97S WCI  29
DETROIT CITY   CLOUDY    39  32  76 VRB7      30.04S WCI  34
DETROIT        CLOUDY    39  33  79 SW12      30.06R WCI  32
FLINT          CLOUDY    37  32  82 W7        30.02R WCI  32
GROSSE ILE     CLOUDY    39  32  75 W7        30.04F WCI  34
HILLSDALE      CLOUDY    34  30  86 SW8       30.03R WCI  27
HOWELL         CLOUDY    37  32  84 W7        30.01R WCI  31

CITY           SKY/WX    TMP DP  RH WIND       PRES   REMARKS
JACKSON        CLOUDY    36  31  82 SW9       30.03R WCI  29
LAMBERTVILLE   CLOUDY    39  32  77 SW6       30.08R WCI  35
LANSING        CLOUDY    36  32  85 SW10      30.02R WCI  28
LAPEER         NOT AVBL
MASON          CLOUDY    36  33  90 SW7       30.02R WCI  30
MONROE         CLOUDY    39  34  84 SW7       30.06R WCI  34
MT. CLEMENS    CLOUDY    39  32  73 W8        30.01R WCI  34
PONTIAC        CLOUDY    37  31  78 W9        30.00S WCI  30
PORT HOPE        N/A     37  33  85 SW8       29.93R WCI  31
PORT HURON     CLOUDY    37  32  81 W7        30.02R WCI  32
TRI CITIES     FAIR      36  33  89 SW13      29.98R WCI  27
MIDLAND        FAIR      37  33  82 SW7       29.96R WCI  32
TROY           CLOUDY    39  32  74 W8        30.04S WCI  34
SAGINAW HB     FAIR      36  32  87 SW8       29.98R WCI  29
$$
MIZ043>046-050>051-056>058-064>065-071>073-077>080-051700-
SOUTHWEST LOWER MICHIGAN

CITY           SKY/WX    TMP DP  RH WIND       PRES   REMARKS
BATTLE CREEK   CLOUDY    35  33  92 SW12      30.04R WCI  27
BENTON HARBOR  CLOUDY    35  31  85 S7        30.05R FOG     WCI  29
BIG RAPIDS     PTSUNNY   38  31  75 W10       29.94S WCI  32
COLDWATER      CLOUDY    35  32  88 SW6       30.05R WCI  30
FREMONT        FAIR      37  28  70 W7        29.98R WCI  31
HOLLAND        PTSUNNY   39  31  72 W12       30.02R WCI  32
GRAND RAPIDS   PTSUNNY   37  32  82 SW10      30.01R WCI  30
IONIA          CLOUDY    35  33  90 SW7       30.00R WCI  29
KALAMAZOO      CLOUDY    36  31  82 SW12      30.04R WCI  28
LUDINGTON      CLOUDY    39  32  75 W10       29.95S WCI  33
MARSHALL       CLOUDY    35  32  89 SW9       30.03R WCI  28
MOUNT PLEASANT SUNNY     37  32  81 W7        29.96R WCI  32
MUSKEGON       PTSUNNY   41  31  67 W9        30.00R
SOUTH HAVEN    CLOUDY    40  34  80 W7        30.04R WCI  35
$$
MIZ016>042-051700-
NORTHERN LOWER MICHIGAN

CITY           SKY/WX    TMP DP  RH WIND       PRES   REMARKS
ALPENA         CLOUDY    37  32  82 SW9       29.88R WCI  30
BEAVER ISLAND  CLOUDY    39  32  76 W15G22    29.87R WCI  30
BELLAIRE       CLOUDY    39  32  77 SW12G18   29.91R WCI  31
CADILLAC       MOSUNNY   36  31  82 W7        29.91R WCI  31
CHARLEVOIX     CLOUDY    40  32  71 W18G28    29.90R WCI  31
FRANKFORT      PTSUNNY   39  32  75 W9G16     29.94R WCI  33
GAYLORD        CLOUDY    35  30  82 SW18      29.86R WCI  24
GRAYLING       CLOUDY    35  32  88 W7        29.90R WCI  30
HARBOR SPRINGS CLOUDY    40  31  69 W12G21    29.86R WCI  33
HOUGHTON LAKE  PTSUNNY   36  30  79 W13       29.91R WCI  27
MANISTEE       PTSUNNY   39  31  72 W16       29.95R WCI  30
OSCODA         CLOUDY    35  33  93 MISG      29.92R
PELLSTON       CLOUDY    36  32  85 W5        29.87R WCI  32
ROGERS CITY    CLOUDY    35  33  93 SW5       29.87R WCI  31
TRAVERSE CITY  MOSUNNY   40  31  70 W10       29.91R WCI  33
$$
MIZ007>008-015-051700-
EASTERN UPPER MICHIGAN

CITY           SKY/WX    TMP DP  RH WIND       PRES   REMARKS
KINROSS        CLOUDY    33  32  96 W8        29.82R WCI  26
MACKINAC ISLAN CLOUDY    37  32  84 W14       29.84R WCI  28
NEWBERRY       MOSUNNY   33  32  96 SW13      29.82R WCI  24
S. S. MARIE    CLOUDY    35  32  88 W7        29.81R WCI  29
MUNISING         N/A     35  30  82 SW9       29.82R WCI  28
$$
MIZ004>006-011>014-085-051700-
CENTRAL UPPER MICHIGAN

CITY           SKY/WX    TMP DP  RH WIND       PRES   REMARKS
MANISTIQUE     SUNNY     37  34  90 W8        29.85R WCI  30
ESCANABA       CLOUDY    37  32  82 SW7       29.88R WCI  32
MENOMINEE      LGT RAIN  37  32  82 SW7       29.90S WCI  32
$$
MIZ001>003-009>011-084-051700-
WESTERN UPPER MICHIGAN

CITY           SKY/WX    TMP DP  RH WIND       PRES   REMARKS
IRON MOUNTAIN  MOSUNNY   35  26  69 W8        29.83S WCI  29
HOUGHTON       PTSUNNY   36  28  73 W14       29.78R WCI  27
COPPER HARBOR    N/A     36  34  92 NW10G16   29.78R WCI  28
IRONWOOD       PTSUNNY   33  27  78 SW7       29.82R WCI  27
$$

ABBREVIATIONS USED IN REMARKS
   TC - TEMPERATURE IN CELSIUS
  WCI - WIND CHILL INDEX
   HX - HEAT INDEX
  VSB - VISIBILITY





USA.gov is the U.S. government's official web portal to all federal, state and local government web resources and services.